User: anonymous   Login
Location: Hiram
(41.3130°N, 81.1440°W)
Time: 06:52:22
(UTC-04:00)
Language:

Iridium 62 - Orbit

View from above orbital plane
View from above orbital plane
View from above satellite
View from above satellite

Ground track
Ground track

The orbit data is extracted from the following two-line orbital elements,

1 25285U 98021A   17206.09792617 +.00000008 +00000-0 -41055-5 0  9998
2 25285 086.3960 208.0553 0002191 089.4802 270.6645 14.34216355010468
Epoch (UTC): 25 July 2017 02:21:00
Eccentricity: 0.0002191
inclination: 86.3960°
perigee height: 776 km
apogee height: 779 km
right ascension of ascending node: 208.0553°
argument of perigee: 89.4802°
revolutions per day: 14.34216355
mean anomaly at epoch: 270.6645°
orbit number at epoch: 1046

The dashed part of the orbit path shows where the satellite is in the earth's shadow,  

DLR